Content
SEND FEEDBACK

Daily
Averages
Monthly
Summary
United States of America

BAYOU LA BATRE, ALABAMA


Home > North America > United States > Alabama
Elevation: 0 meters     Latitude: 30 23N     Longitude: 088 14W

WEATHER
 
SELECT A DAY
Number of Records: 200,165;   Date Range: 8/14/97 - 11/27/14
 
SHARE

PRINT THIS DATA

[ ← Previous Day ]
WEATHER ALMANAC - 13 JULY, 2014
[ Next Day → ]
[ °F ]   °C
Weather ElementAverageHighLow
Temperature26.2 °C31.7 °C (11:03 am)22.8 °C (2:53 am)
Dewpoint23.1 °C24.4 °C (7:53 am)22.2 °C (2:53 am)
Humidity84.3 %100 % (1:50 am)59 % (11:53 am)
Barometer1018.3 hPa1020.3 hPa (7:53 am)1017.3 hPa (1:36 am)
Wind Speed4.8 km/h14.8 km/h (2:53 pm)
Weather ElementAverage
Visibility11.3 km
Wind DirectionE (91.7 °)

Weather ElementTotal
Precipitation---
Cooling Degree Days8.9 (Base 18.3)
Growing Degree Days17.3 (Base 10)
Averaged from 35 records on 13 July, 2014
WEATHER CONDITIONS BREAKOUT
WIND DIRECTION BREAKOUT
WEATHER BY HOUR - 13 JULY, 2014
[ °F ]   °C
Local TimeTemperatureDewpointHumidityBarometerVisibilityWind DirectionWind SpeedGust SpeedPrecipitationEventsConditions
12:53 AM24.4 °C23.3 °C94 %1017.9 hPa11.3 kmEast (80°)5.6 km/hMostly Cloudy
1:53 AM23.9 °C22.8 °C94 %1017.6 hPa9.7 kmENE (70°)5.6 km/hClear
2:53 AM23.3 °C22.8 °C97 %1017.6 hPa6.4 kmCalmClear
3:53 AM23.3 °C22.8 °C97 %1017.6 hPa4 kmCalmMostly Cloudy
4:02 AM22.8 °C22.2 °C96 %1017.6 hPa4.8 kmCalmScattered Clouds
4:19 AM22.8 °C22.2 °C96 %1017.9 hPa4 kmNorth (360°)7.4 km/hPartly Cloudy
4:50 AM23 °C23 °C100 %1017.9 hPa4.8 kmNNE (20°)5.6 km/hScattered Clouds
4:53 AM23.3 °C22.8 °C97 %1017.9 hPa4.8 kmCalmMostly Cloudy
5:29 AM23.3 °C22.8 °C97 %1017.9 hPa4 kmCalmMostly Cloudy
5:53 AM23.3 °C22.8 °C97 %1018.3 hPa4.8 kmCalmPartly Cloudy
6:04 AM23.3 °C22.8 °C97 %1018.3 hPa4 kmCalmMostly Cloudy
6:14 AM23.3 °C23.3 °C100 %1018.3 hPa4.8 kmCalmMostly Cloudy
6:21 AM23.3 °C22.8 °C97 %1018.6 hPa4 kmCalmMostly Cloudy
6:42 AM24.4 °C23.9 °C97 %1018.6 hPa4.8 kmCalmPartly Cloudy
6:53 AM25 °C23.9 °C94 %1018.6 hPa6.4 kmCalmClear
7:53 AM26.7 °C24.4 °C87 %1019.3 hPa14.5 kmESE (120°)9.3 km/hClear
8:53 AM27.2 °C22.8 °C77 %1020.3 hPa16.1 kmSSE (160°)7.4 km/hClear
9:53 AM28.9 °C22.8 °C69 %1020 hPa16.1 kmSE (140°)9.3 km/hClear
10:53 AM28.9 °C23.3 °C72 %1020 hPa16.1 kmSSE (160°)9.3 km/hClear
11:53 AM30 °C23.3 °C67 %1020 hPa16.1 kmSSE (160°)14.8 km/hScattered Clouds
12:44 PM29.4 °C23.3 °C69 %1019 hPa16.1 kmSSW (210°)13 km/hMostly Cloudy
12:53 PM30.6 °C23.3 °C65 %1019.3 hPa16.1 kmSouth (170°)13 km/hMostly Cloudy
1:04 PM31.1 °C23.3 °C63 %1019 hPa16.1 kmSouth (190°)14.8 km/hMostly Cloudy
1:53 PM31.1 °C23.9 °C65 %1019 hPa16.1 kmWest (260°)7.4 km/hMostly Cloudy
2:07 PM28.3 °C23.3 °C74 %1018.6 hPa16.1 kmNorth (350°)9.3 km/hOvercast
2:45 PM27.8 °C22.8 °C74 %1017.9 hPa16.1 kmCalmOvercast
2:53 PM28.3 °C22.8 °C72 %1017.6 hPa16.1 kmSouth (180°)5.6 km/hMostly Cloudy
3:53 PM31.7 °C22.8 °C59 %1017.6 hPa16.1 kmVariable9.3 km/hMostly Cloudy
4:53 PM30.6 °C22.8 °C63 %1017.3 hPa16.1 kmSouth (180°)11.1 km/hClear
6:53 PM28.9 °C23.3 °C72 %1017.6 hPa16.1 kmSSW (200°)7.4 km/hPartly Cloudy
7:53 PM27.8 °C23.3 °C76 %1017.3 hPa16.1 kmSSW (200°)5.6 km/hClear
8:53 PM25.6 °C23.3 °C87 %1017.3 hPa16.1 kmCalmClear
9:53 PM23.9 °C23.3 °C96 %1017.9 hPa16.1 kmCalmClear
10:53 PM23.3 °C22.8 °C97 %1018.6 hPa12.9 kmCalmClear
11:53 PM23.3 °C22.8 °C97 %1017.9 hPa11.3 kmCalmClear
Hourly data recorded from KPQL, located 0 kilometers away from Bayou La Batre, Alabama







STORIES FROM OUR PARTNERS